LiveATC.Net - Listen to live air traffic control over the Internet!


ICAO: KHBG  IATA: HBG   Airport: Hattiesburg Bobby L Chain Municipal Airport
City: Hattiesburg   State/Province: Mississippi
Country: United States   Continent: North America
KHBG METAR Weather: KHBG 040253Z AUTO 05003KT 10SM SCT005 23/22 A3001 RMK AO2 RAE32 SLP158 P0000 60003 T02280217 53020
KHBG Flight Activity (FlightAware)
KHBG Airport Info   (iFlightPlanner)
KHBG VFR Sectional Chart   (iFlightPlanner) 
KHBG IFR Low Chart   (iFlightPlanner) 

KHBG CTAF (Air Race Classic)
Feed Status: DOWN
Last heard on: 2019-07-19 17:38:22 (320 days 9 hours 28 minutes ago)
Archive Access: KHBG CTAF (Air Race Classic)
FacilityFrequency
Hattiesburg CTAF122.800

NOTICE

Unauthorized use prohibited. See LiveATC.net Terms of Service


Airport/ARTCC Code
Frequency Search
(e.g., 124.400, 128.75)
Site-wide search
 


Browse Feeds
Top 50 Feeds
Coverage Map
Bad Weather Areas

LiveATC FAQ
Offer LiveATC feed
Contact LiveATC.net
Press Inquiries

LiveATC on iPhone
LiveATC on Android

Windows Phone
Windows 8/10

LiveATC Mobile
(Mobile browser)

ATC Audio Archives
Interesting Recordings

LiveATC Forums


Home Page
About LiveATC.net
Make a Donation
Terms of Use
Privacy Policy

Canadian Air Freqs

AIRMETs/SIGMETs

FAA Airport Status
Nat'l Airspace Status
Arrival Demand Charts


Server Software By:
Icecast.org
Liquidsoap